ボク彗星

C/2022 B4 ( Bok )

English version
Home page
Updated on May 29, 2022

---------------------------------------------------------------------

・ プロフィール

発見日 2022年1月29日
発見光度 20.8等
発見者 H. Groeller (Bok NEO Survey)

・ 写真集

・ 軌道要素

Epoch 2022 Jan. 21.0 TT = JDT 2459600.5
T 2022 Jan. 29.89470 TT                                 Rudenko
q   1.3796657            (2000.0)            P               Q
z  +0.0025588      Peri.  152.95428     -0.69894308     -0.70611393
 +/-0.0000129      Node   340.66181     +0.57840152     -0.46477009
e   0.9964698      Incl.   20.04416     +0.42063078     -0.53422082
From 128 observations 2022 Jan. 29-Apr. 2, mean residual 0".5.

・ 光度変化

        m1 = 20.0 + 5 logΔ + 10.0 log r

---------------------------------------------------------------------

軌道要素はM.P.E.C. 2022-G109に掲載されたものです。
光度グラフはComet for Windowsで作成したものです。

---------------------------------------------------------------------

Copyright(C) Seiichi Yoshida (comet@aerith.net). All rights reserved.